Location: downtown San Diego
(32.7310°N, 117.1990°W)
Time: 13:24:43
(UTC-07:00)

Cosmos 1892 - Pass Details

Date: 12 July 2018
Orbit: 504 x 528 km, 82.5° (Epoch: 20 September)

Event Time Altitude Azimuth Distance (km) Brightness Sun altitude
Exits shadow 22:00:50 25° 52° (NE) 1,052 4.2 -21.5°
Drops below altitude 10° 22:02:55 10° 27° (NNE) 1,730 5.6 -21.8°
Sets 22:05:11 0° 18° (NNE) 2,624 6.7 -22.1°
